Regional Weather Roundup
Issued by NWS Boston, MA

Current Version | Previous Version | Text Only | Print | Product List | Glossary Off
Versions: 1 2 3 4 5 6 7 8 9 10 11 12 13 14 15 16 17 18 19 20 21 22 23 24 25 26 27
000 ASUS41 KBOX 190110 RWRBOX REGIONAL WEATHER ROUNDUP NATIONAL WEATHER SERVICE TAUNTON MA 900 PM EDT FRI AUG 18 2017 NOTE: "FAIR" INDICATES FEW OR NO CLOUDS BELOW 12,000 FEET WITH NO SIGNIFICANT WEATHER AND/OR OBSTRUCTIONS TO VISIBILITY. MAZALL-190200- EASTERN MASSACHUSETTS CITY SKY/WX TMP DP RH WIND PRES REMARKS BOSTON CLOUDY 74 73 97 S12 29.82R BEVERLY CLOUDY 74 73 97 S9 29.80S LAWRENCE CLOUDY 77 73 87 S7 29.82R BEDFORD CLOUDY 75 71 87 S10 29.79R BLUE HILL N/A 73 71 93 S16G24 29.83R NORWOOD CLOUDY 76 74 93 S8 29.81R MARSHFIELD CLOUDY 75 73 94 S9G15 29.83R PLYMOUTH LGT RAIN 73 71 93 SW10 29.85S TAUNTON LGT RAIN 75 72 90 S10 29.83R NEW BEDFORD LGT RAIN 74 72 93 S15G32 29.83S FOG $$ MAZALL-190200- CAPE COD AND THE ISLANDS CITY SKY/WX TMP DP RH WIND PRES REMARKS FALMOUTH CLOUDY 73 72 94 S18 29.87S THUNDER HYANNIS LGT RAIN 74 72 93 S15G29 29.86S CHATHAM CLOUDY 69 69 100 VRB7G16 29.89F PROVINCETOWN LGT RAIN 72 71 97 S16G23 29.86R FOG NANTUCKET CLOUDY 70 69 97 S15 29.90F MARTHAS VNYRD CLOUDY 73 70 90 S13 29.87S THUNDER $$ MAZALL-190200- CENTRAL AND WESTERN MASSACHUSETTS CITY SKY/WX TMP DP RH WIND PRES REMARKS WORCESTER CLOUDY 73 72 96 S9 29.84R FOG FITCHBURG CLOUDY 77 75 93 CALM 29.81R ORANGE CLOUDY 75 75 100 S3 29.81R SPRINGFIELD CLOUDY 76 74 92 S10 29.77R WESTFIELD CLOUDY 77 76 96 S8 29.78S NORTH ADAMS CLOUDY 73 71 93 CALM 29.78S PITTSFIELD CLOUDY 74 70 87 S5 29.80S $$ RIZALL-190200- RHODE ISLAND CITY SKY/WX TMP DP RH WIND PRES REMARKS PROVIDENCE LGT RAIN 75 75 100 S14 29.83F FOG NEWPORT CLOUDY 73 73 100 S15G25 29.83F BLOCK ISLAND LGT RAIN 73 72 96 MISG N/A WESTERLY CLOUDY 74 72 93 S13G20 29.84S $$ CTZALL-190200- CONNECTICUT CITY SKY/WX TMP DP RH WIND PRES REMARKS BRADLEY INTL LGT RAIN 77 76 96 S12 29.77F HARTFORD RAIN 77 77 100 S7 29.78F FOG BRIDGEPORT CLOUDY 77 75 93 S7 29.78F DANBURY CLOUDY 75 73 93 NE5 29.80F GROTON LGT RAIN 72 70 93 S6 29.82S NEW HAVEN CLOUDY 76 74 93 S7 29.79F FOG CHESTER DRIZZLE 75 75 100 VRB7G15 29.83S MERIDEN LGT RAIN 76 75 97 S8 29.80F FOG WILLIMANTIC LGT RAIN 76 76 100 S8 29.82R FOG OXFORD LGT RAIN 75 75 100 S8 29.83S VSB 3/4 $$ MEZ002-015-021-024-NHZ003-005-008-011-012-014-VTZ005-008-190200- NORTHERN NEW ENGLAND CITY SKY/WX TMP DP RH WIND PRES REMARKS PORTLAND ME HVY RAIN 66 65 96 VRB3 29.84F FOG BANGOR ME LGT RAIN 61 58 90 SE12 29.94S CONCORD NH LGT RAIN 64 63 96 NW3 29.83R MANCHESTER NH CLOUDY 67 63 87 VRB3 29.80F NASHUA NH CLOUDY 68 67 96 VRB7 29.82R FOG PORTSMOUTH NH LGT RAIN 69 68 97 S5 29.80S FOG JAFFREY NH LGT RAIN 65 65 100 VRB3 29.84R KEENE NH N/A N/A N/A N/A MISG N/A BURLINGTON VT CLOUDY 72 67 84 E7 29.73R MT. WASHINGTON FOG 55 55 100 SW26 N/A VSB 1/16 $$ NYZ052-076-190200- EASTERN NEW YORK CITY SKY/WX TMP DP RH WIND PRES REMARKS ALBANY MOCLDY 76 73 91 VRB5 29.75S NEW YORK CITY CLOUDY 77 73 87 S10 29.76F $$ ANZALL-190200- MARINE OBSERVATIONS STATION/POSITION TIME TEMP WIND PRES VSBY WAVE AIR SEA DIR/SP/G HT/PER (UTC) (F) (DEG/KT/KT) (MB) (MI) (FT/S) BOSTON BUOY 0050 69 66 170/ 14/ 16 1009.5F 2/ 4 BUZZARDS BAY 0000 71 190/ 25/ 27 1010.5F NANTUCKET SOUND 2350 72 71 180/ 17/ 21 1011.7 2/ 4 MASS BAY-STELLWA 0004 70 66 160/ 16/ 17 1008.8F 3/ 5 ISLE OF SHOALS 0000 68 160/ 21/ 23 1009.1F S OF BLOCK IS NOT AVBL $$ ......................KEY......................... SKY/WX - SKY CONDITION/PRESENT WEATHER TMP - TEMPERATURE IN FAHRENHEIT DWPT - DEWPOINT IN FAHRENHEIT RH - RELATIVE HUMIDITY IN PERCENT WIND - DIRECTION AND SPEED IN MPH PRES - MEAN SEA LEVEL PRESSURE IN INCHES OF HG WCI - WIND CHILL INDEX VSB - VISIBILITY IN MILES HX - HEAT INDEX TC - TEMPERATURE IN CELSIUS VRB - VARIABLE WIND DIRECTION N/A - NOT AVAILABLE

USA.gov is the U.S. government's official web portal to all federal, state and local government web resources and services.